• Join FlightAware (Why Join?)
  • Login
  • US Flag GB Flag 
16:17 EDT


 

Airport Tracker/Info


-or-


 

Live Flight TrackerFlight Track Log ✈ N877PM ✈ 06-Jun-2013 ✈ KJNX - KAPF

Flight Track Log - Related Links

Times and Time Zones

All times are in EDT time to prevent confusion due to time zone crossing. See the N877PM flight status page for this flight to view local times or setup timezone preferences in your user account.

Time Position Orientation Groundspeed Altitude Reporting Facility
EDT Latitude Longitude Course Direction KTS MPH feet Rate Location/Type
19:57 35.4889 -78.4872 266° West 152 175 5,400  Level Washington Center
19:58 35.4550 -78.5039 202° Southwest 137 158 7,000 1,680 Climbing Washington Center
19:59 35.4086 -78.5228 198° South 155 178 8,900 1,680 Climbing Washington Center
20:00 35.3728 -78.5367 198° South 155 178 10,400 1,560 Climbing Washington Center
20:01 35.3264 -78.5553 198° South 160 184 12,000 1,500 Climbing Washington Center
20:02 35.2822 -78.5714 197° South 160 184 13,500 1,380 Climbing Washington Center
20:03 35.2403 -78.5878 198° South 166 191 14,900 1,320 Climbing Washington Center
20:04 35.1981 -78.6039 197° South 166 191 16,300 1,260 Climbing Washington Center
20:05 35.1536 -78.6225 199° South 166 191 17,400 1,140 Climbing Washington Center
20:06 35.1094 -78.6389 197° South 166 191 18,600 1,140 Climbing Washington Center
20:07 35.0631 -78.6572 198° South 166 191 19,700 1,020 Climbing Washington Center
20:08 35.0167 -78.6758 198° South 166 191 20,700 1,020 Climbing Washington Center
20:09 34.9725 -78.6919 197° South 173 199 21,800 960 Climbing Washington Center
20:10 34.9261 -78.7103 198° South 173 199 22,700 840 Climbing Washington Center
20:11 34.8797 -78.7289 198° South 173 199 23,600 840 Climbing Washington Center
20:12 34.8333 -78.7447 196° South 173 199 24,400 840 Climbing Washington Center
20:13 34.7869 -78.7633 198° South 173 199 25,300 840 Climbing Washington Center
20:14 34.7406 -78.7817 198° South 173 199 26,200 780 Climbing Washington Center
20:16 34.6364 -78.8200 197° South 167 192 27,900 660 Climbing Jacksonville Center
20:17 34.5911 -78.8372 197° South 167 192 28,500 600 Climbing Jacksonville Center
20:18 34.5439 -78.8572 199° South 167 192 29,100 540 Climbing Jacksonville Center
20:19 34.5025 -78.8717 196° South 177 204 29,600 600 Climbing Jacksonville Center
20:20 34.4511 -78.8967 202° Southwest 183 211 30,400 720 Climbing Jacksonville Center
20:21 34.4039 -78.9164 199° South 183 211 31,100 600 Climbing Jacksonville Center
20:22 34.3564 -78.9336 197° South 183 211 31,700 540 Climbing Jacksonville Center
20:23 34.3111 -78.9583 204° Southwest 183 211 32,200 480 Climbing Jacksonville Center
20:24 34.2686 -78.9931 214° Southwest 183 211 32,700 540 Climbing Jacksonville Center
20:25 34.2278 -79.0275 215° Southwest 183 211 33,300 540 Climbing Jacksonville Center
20:26 34.1872 -79.0644 217° Southwest 183 211 33,800 420 Climbing Jacksonville Center
20:27 34.1467 -79.0989 215° Southwest 183 211 34,200 420 Climbing Jacksonville Center
20:28 34.1081 -79.1356 218° Southwest 183 211 34,700 420 Climbing Jacksonville Center
20:29 34.0675 -79.1725 217° Southwest 188 216 35,100 360 Climbing Jacksonville Center
20:30 34.0225 -79.2094 214° Southwest 188 216 35,500 360 Climbing Jacksonville Center
20:31 33.9839 -79.2436 216° Southwest 188 216 35,900 240 Climbing Jacksonville Center
20:32 33.9414 -79.2831 218° Southwest 188 216 36,000  Climbing Jacksonville Center
20:33 33.8925 -79.3250 215° Southwest 198 228 36,000  Level Jacksonville Center
20:34 33.8372 -79.3697 214° Southwest 223 257 36,000  Level Jacksonville Center
20:35 33.7822 -79.4194 217° Southwest 239 275 36,000  Level Jacksonville Center
20:36 33.7356 -79.4636 218° Southwest 238 274 36,000  Level Jacksonville Center
20:37 33.6744 -79.5158 215° Southwest 253 291 36,000  Level Jacksonville Center
20:38 33.6153 -79.5656 215° Southwest 263 303 36,000  Level Jacksonville Center
20:39 33.5539 -79.6203 217° Southwest 263 303 36,000  Level Jacksonville Center
20:40 33.4928 -79.6722 215° Southwest 268 308 36,000  Level Jacksonville Center
20:41 33.4317 -79.7292 218° Southwest 274 315 36,000  Level Jacksonville Center
20:42 33.3703 -79.7811 215° Southwest 274 315 36,000  Level Jacksonville Center
20:43 33.3069 -79.8356 216° Southwest 274 315 36,000  Level Jacksonville Center
20:44 33.2436 -79.8900 216° Southwest 279 321 36,000  Level Jacksonville Center
20:45 33.1800 -79.9442 215° Southwest 284 327 36,000  Level Jacksonville Center
20:46 33.1208 -79.9958 216° Southwest 284 327 36,000  Level Jacksonville Center
20:47 33.0531 -80.0475 213° Southwest 284 327 36,000  Level Jacksonville Center
20:48 32.9958 -80.1064 221° Southwest 289 333 36,000  Level Jacksonville Center
20:49 32.9158 -80.1681 213° Southwest 294 338 36,000  Level Jacksonville Center
20:50 32.8525 -80.2269 218° Southwest 299 344 36,000  Level Jacksonville Center
20:51 32.7889 -80.2831 217° Southwest 294 338 36,000  Level Jacksonville Center
20:52 32.7231 -80.3369 215° Southwest 294 338 36,000  Level Jacksonville Center
20:53 32.6594 -80.3931 217° Southwest 294 338 36,000  Level Jacksonville Center
20:54 32.5961 -80.4489 217° Southwest 280 322 36,000  Level Jacksonville Center
20:55 32.5303 -80.5050 216° Southwest 284 327 36,000  Level Jacksonville Center
20:56 32.4644 -80.5583 214° Southwest 289 333 36,000  Level Jacksonville Center
20:57 32.3986 -80.6142 216° Southwest 295 339 36,000  Level Jacksonville Center
20:58 32.3350 -80.6700 217° Southwest 287 330 36,000  Level Jacksonville Center
20:59 32.2692 -80.7256 216° Southwest 285 328 36,000  Level Jacksonville Center
21:00 32.2094 -80.7761 216° Southwest 285 328 36,000  Level Jacksonville Center
21:01 32.1456 -80.8292 215° Southwest 290 334 36,000  Level Jacksonville Center
21:02 32.0878 -80.8769 215° Southwest 282 325 36,000  Level Jacksonville Center
21:03 32.0158 -80.9347 214° Southwest 283 326 36,000  Level Jacksonville Center
21:04 31.9519 -80.9900 216° Southwest 283 326 36,000  Level Jacksonville Center
21:05 31.8942 -81.0353 214° Southwest 283 326 36,000  Level Jacksonville Center
21:06 31.8261 -81.0953 217° Southwest 283 326 36,000  Level Jacksonville Center
21:07 31.7600 -81.1481 214° Southwest 282 325 36,000  Level Jacksonville Center
21:08 31.7042 -81.1956 216° Southwest 287 330 36,000  Level Jacksonville Center
21:09 31.6339 -81.2528 215° Southwest 282 325 36,000  Level Jacksonville Center
21:10 31.5719 -81.3050 216° Southwest 282 325 36,000  Level Jacksonville Center
21:11 31.5161 -81.3500 214° Southwest 282 325 36,000  Level Jacksonville Center
21:12 31.4458 -81.4072 215° Southwest 282 325 36,000  Level Jacksonville Center
21:13 31.3900 -81.4567 217° Southwest 282 325 36,000  Level Jacksonville Center
21:14 31.3239 -81.5161 218° Southwest 282 325 36,000  Level Jacksonville Center
21:15 31.2597 -81.5656 213° Southwest 283 326 36,000  Level Jacksonville Center
21:16 31.1975 -81.6175 216° Southwest 283 326 36,000  Level Jacksonville Center
21:17 31.1356 -81.6669 214° Southwest 283 326 36,000  Level Jacksonville Center
21:18 31.0775 -81.7186 217° Southwest 275 316 36,000  Level Jacksonville Center
21:19 31.0153 -81.7653 213° Southwest 270 311 36,000  Level Jacksonville Center
21:20 30.9553 -81.8169 216° Southwest 270 311 36,000  Level Jacksonville Center
21:21 30.8931 -81.8661 214° Southwest 270 311 36,000  Level Jacksonville Center
21:22 30.8328 -81.9128 214° Southwest 270 311 36,000 -60 Level Jacksonville Center
21:23 30.7747 -81.9617 216° Southwest 270 311 35,900  Descending Jacksonville Center
21:24 30.7144 -82.0106 215° Southwest 270 311 36,000  Climbing Jacksonville Center
21:25 30.6542 -82.0594 215° Southwest 270 311 36,000 -60 Level Jacksonville Center
21:26 30.5939 -82.1011 211° Southwest 270 311 35,900  Descending Jacksonville Center
21:27 30.5272 -82.0992 179° South 254 292 36,000  Climbing Jacksonville Center
21:28 30.4519 -82.1069 185° South 260 299 36,000  Level Jacksonville Center
21:29 30.3769 -82.1125 184° South 273 314 36,000  Level Jacksonville Center
21:30 30.3017 -82.1203 185° South 273 314 36,000  Level Jacksonville Center
21:31 30.2244 -82.1258 184° South 273 314 36,000 -300 Level Jacksonville Center
21:32 30.1472 -82.1239 179° South 273 314 35,500 -540 Descending Jacksonville Center
21:33 30.0636 -82.1053 169° South 287 330 35,000 -300 Descending Jacksonville Center
21:34 29.9781 -82.0942 174° South 307 353 35,000  Level Jacksonville Center
21:35 29.8964 -82.0781 170° South 307 353 35,000  Level Jacksonville Center
21:36 29.8169 -82.0619 170° South 307 353 35,000  Level Jacksonville Center
21:37 29.7375 -82.0411 167° South 302 348 35,000  Level Jacksonville Center
21:38 29.6539 -82.0297 173° South 302 348 35,000  Level Jacksonville Center
21:39 29.5744 -82.0139 170° South 291 335 35,000  Level Jacksonville Center
21:40 29.4972 -81.9978 170° South 291 335 35,000  Level Jacksonville Center
21:41 29.4178 -81.9842 172° South 291 335 35,000  Level Jacksonville Center
21:42 29.3361 -81.9636 168° South 291 335 35,000  Level Jacksonville Center
21:43 29.2567 -81.9525 173° South 291 335 35,000  Level Jacksonville Center
21:44 29.1772 -81.9294 166° South 296 341 35,000 -900 Level Jacksonville Center
21:46 29.0031 -81.8914 169° South 318 366 32,400 -1,440 Descending Miami Center
21:47 28.9139 -81.8756 171° South 324 373 30,700 -1,560 Descending Miami Center
21:48 28.8267 -81.8597 171° South 324 373 29,300 -1,620 Descending Miami Center
21:49 28.7450 -81.8158 155° Southeast 324 373 27,500 -1,200 Descending Miami Center
21:50 28.6597 -81.8097 176° South 324 373 27,000 -300 Descending Miami Center
21:51 28.5742 -81.8083 179° South 311 358 27,000  Level Miami Center
21:52 28.4911 -81.7950 172° South 306 352 27,000  Level Miami Center
21:53 28.4083 -81.7772 169° South 311 358 27,000 -420 Level Miami Center
21:54 28.3233 -81.7617 171° South 311 358 26,200 -1,080 Descending Miami Center
21:55 28.2322 -81.7414 169° South 324 373 24,900 -1,140 Descending Miami Center
21:56 28.1392 -81.7208 169° South 336 387 24,000 -1,140 Descending Miami Center
21:57 28.0439 -81.7003 169° South 341 392 22,700 -1,200 Descending Miami Center
21:58 27.9483 -81.6819 170° South 347 399 21,600 -1,380 Descending Miami Center
21:59 27.8553 -81.6617 169° South 352 405 20,000 -1,620 Descending Miami Center
22:00 27.7517 -81.6386 169° South 347 399 18,400 -1,800 Descending Miami Center
22:01 27.6606 -81.6183 169° South 347 399 16,400 -2,040 Descending Miami Center
22:02 27.5692 -81.6006 170° South 347 399 14,400 -1,800 Descending Miami Center
22:03 27.4758 -81.5825 170° South 347 399 12,800 -1,620 Descending Miami Center
22:04 27.3889 -81.5650 170° South 335 386 11,200 -1,620 Descending Miami Center